Weather in Tormosin

Russia / Volgograd Oblast     48°10′13″N   42°40′45″E
temp.,
°C
wind,
m/s
gust,
m/s
humid.,
%
clouds,
%
prec.,
mm/h
press.,
hPa
HPBL,
m
6 august, fri
fri600:00+24e5114236 0.0 1014246
03:00+23e51244100 0.0 1014270
06:00+23e5114323 0.0 1014297
09:00+29ese68315 0.0 1013691
12:00+32ese66265 0.0 10131565
15:00+33ese562494 0.0 10112061
18:00+32ese562562 0.0 10101428
21:00+27e51133100 0.0 1010182
7 august, sat
sat700:00+27e71531100 0.0 1010366
03:00+25e61535100 0.0 1010364
06:00+25e71533100 0.0 1010433
09:00+29ese81225100 0.0 1010720
12:00+33ese7921100 0.0 10091403
15:00+35e7920100 0.0 10081956
18:00+34ene7102397 0.0 1007819
21:00+30e71629100 0.0 1007378
8 august, sun
sun800:00+29e71530100 0.0 1008379
03:00+27ene61132100 0.0 1009256
06:00+26e51134100 0.0 1010308
09:00+30ese6825100 0.0 1010755
12:00+31n1324100 0.0 1010674
15:00+34ese71123100 0.0 10091749
18:00+32ne81222100 0.0 1008386
21:00+31e61424100 0.0 1009519
9 august, mon
mon900:00+28ese6112938 0.0 1009267
03:00+25ese4634100 0.0 1010110
06:00+25ese4738100 0.0 1011181
09:00+29se4532100 0.0 1012517
12:00+32sse332923 0.0 1012973
15:00+34se332772 0.0 10111384
18:00+34ese2228100 0.1 1010746
21:00+27e4743100 1.2 1012101
10 august, tue
tue1000:00+25nnw335189 0.2 101238
03:00+25nne3340100 0.3 101138
06:00+25ene3437100 0.0 101165
09:00+27s2234100 0.0 1011196
12:00+28ssw223217 0.0 1011321
15:00+32se43345 0.0 10101352
18:00+30se454245 0.4 1009383
21:00+27ssw46485 0.4 1009101